Flag for Italy Weather past 2 weeks in Modena, Italy

Now
82 °F

Passing clouds.


Feels Like: 82 °F
Forecast: 60 / 85 °F
Wind: 5 mph from East

Location: Bologna / Borgo Panigale

Current Time: Aug 29, 2014 at 4:49:52 PM

Latest Report: Aug 29, 2014 at 3:50 PM


Visibility: N/A

Pressure: 30.01 "Hg

Humidity: 40%

Dew point: 55 °F

Location of ModenaLocation

Historic Weather in Modena — Graph

°F

Modena temperature yesterday

Maximum temperature yesterday: 81 °F (at 4:50 PM)
Minimum temperature yesterday: 66 °F (at 11:20 PM)
Average temperature yesterday: 73 °F

Past Weeks' High & Low Weather Summary

 TemperatureHumidityPressure
High84 °F (Aug 14, 3:20 PM)100% (Aug 16, 9:20 AM)30.09 "Hg (Aug 16, 9:20 AM)
Low55 °F (Aug 17, 5:50 AM)32% (Aug 17, 4:20 PM)29.77 "Hg (Aug 14, 3:20 PM)
Average71 °F70%29.93 "Hg
* Reported Aug 14 3:20 PM — Aug 29 3:20 PM, Modena, Weather by CustomWeather, © 2014

Note: Actual official high and low records may vary slightly from our data, if they occured in-between our weather recording intervals... More about our weather records

Advertising

Modena weather history for previous 24 hours

 ConditionsComfort  
Time TempWeatherWind HumidityBarometerVisibility
3:20 PM
Aug 29
84 °FSunny.3 mph43%30.01 "Hg10 mi
2:50 PM82 °FSunny.3 mph42%30.04 "Hg10 mi
2:20 PM82 °FSunny.3 mph42%30.04 "Hg10 mi
1:50 PM81 °FPassing clouds.5 mph45%30.04 "HgN/A
1:20 PM81 °FSunny.3 mph45%30.07 "Hg10 mi
12:50 PM81 °FPassing clouds.5 mph42%30.07 "HgN/A
12:20 PM79 °FSunny.3 mph48%30.07 "Hg10 mi
11:50 AM79 °FSunny.5 mph48%30.07 "Hg10 mi
11:20 AM77 °FSunny.3 mph51%30.07 "Hg10 mi
10:50 AM75 °FPassing clouds.5 mph61%30.07 "HgN/A
10:20 AM75 °FPassing clouds.3 mph57%30.07 "HgN/A
9:50 AM75 °FSunny.1 mph65%30.07 "Hg10 mi
9:20 AM73 °FSunny.1 mph69%30.07 "Hg10 mi
8:50 AM70 °FSunny.2 mph78%30.07 "Hg10 mi
8:20 AM68 °FSunny.5 mph78%30.07 "Hg10 mi
7:50 AM64 °FSunny.7 mph88%30.07 "Hg10 mi
7:20 AM63 °FClear.6 mph94%30.07 "Hg10 mi
6:50 AM63 °FPassing clouds.5 mph88%30.07 "HgN/A
6:20 AM63 °FClear.5 mph88%30.04 "Hg10 mi
5:50 AM63 °FClear.7 mph94%30.07 "Hg10 mi
5:20 AM63 °FClear.6 mph94%30.04 "Hg10 mi
4:50 AM63 °FClear.7 mph94%30.04 "Hg10 mi
4:20 AM64 °FClear.6 mph88%30.04 "Hg10 mi
3:50 AM64 °FClear.5 mph88%30.04 "Hg10 mi
3:20 AM64 °FClear.7 mph88%30.04 "Hg10 mi
2:50 AM64 °FClear.3 mph88%30.04 "Hg10 mi
2:20 AM64 °FPassing clouds.5 mph94%30.04 "HgN/A
1:50 AM66 °FClear.8 mph88%30.04 "Hg10 mi
1:20 AM66 °FClear.7 mph88%30.07 "Hg10 mi
12:50 AM66 °FClear.2 mph88%30.07 "Hg10 mi
12:20 AM66 °FClear.1 mph83%30.07 "Hg10 mi
11:50 PM
Aug 28
66 °FClear.No wind88%30.07 "Hg10 mi
11:20 PM66 °FClear.1 mph88%30.04 "Hg10 mi
10:50 PM70 °FClear.2 mph78%30.04 "Hg10 mi
10:20 PM70 °FClear.3 mph78%30.04 "Hg10 mi
9:50 PM70 °FClear.6 mph73%30.04 "Hg10 mi
9:20 PM70 °FClear.6 mph73%30.04 "Hg10 mi
8:50 PM72 °FSunny.6 mph73%30.04 "Hg10 mi
8:20 PM73 °FSunny.6 mph69%30.01 "Hg10 mi
7:50 PM75 °FPassing clouds.5 mph61%30.01 "HgN/A
7:20 PM77 °FPassing clouds.6 mph57%30.01 "HgN/A
6:50 PM79 °FPassing clouds.5 mph58%30.01 "HgN/A
6:20 PM79 °FPassing clouds.7 mph54%30.01 "HgN/A
5:50 PM79 °FPassing clouds.7 mph54%30.01 "HgN/A
5:20 PM79 °FPassing clouds.6 mph58%30.01 "HgN/A
4:50 PM81 °FPassing clouds.7 mph54%30.01 "HgN/A
4:20 PM79 °FPassing clouds.7 mph58%30.01 "HgN/A
Weather by CustomWeather, © 2014

See weather overviewHow to use our weather pages